User: anonymous   Login
Location: Peebles
(55.6412°N, 3.1714°W)
Time: 15:44:56
(UTC+01:00)
Language:

PSLV DEB - Orbit

View from above orbital plane
View from above orbital plane
View from above satellite
View from above satellite

Ground track
Ground track

The orbit data is extracted from the following two-line orbital elements,

1 28859U 01049PM  22182.35295575  .00007396  00000-0  33368-3 0  9993
2 28859  97.6226 220.0967 0016309  48.4226 311.8405 15.21191764500731
Epoch (UTC): 01 July 2022 08:28:15
Eccentricity: 0.0016309
inclination: 97.6226°
perigee height: 491 km
apogee height: 513 km
right ascension of ascending node: 220.0967°
argument of perigee: 48.4226°
revolutions per day: 15.21191764
mean anomaly at epoch: 311.8405°
orbit number at epoch: 50073

The dashed part of the orbit path shows where the satellite is in the earth's shadow,  

DLR